Flag for U.S.A. Weather past 2 weeks in Naples, Florida, U.S.A.

Now
74 °F

Passing clouds.


Feels Like: 74 °F
Forecast: 66 / 81 °F
Wind: 6 mph from South

Location: Naples Municipal

Current Time: Mar 3, 2015 at 7:35:13 PM

Latest Report: Mar 3, 2015 at 6:53 PM


Visibility: 10 mi

Pressure: 30.10 "Hg

Humidity: 79%

Dew point: 67 °F

Location of NaplesLocation

Historic Weather in Naples — Graph

°F

Naples temperature yesterday

Maximum temperature yesterday: 83 °F (at 11:53 AM)
Minimum temperature yesterday: 66 °F (at 2:53 AM)
Average temperature yesterday: 72 °F

Past Weeks' High & Low Weather Summary

 TemperatureHumidityPressure
High87 °F (Mar 3, 2:53 PM)100% (Feb 18, 5:53 AM)30.37 "Hg (Feb 18, 5:53 AM)
Low37 °F (Feb 20, 6:53 AM)20% (Feb 20, 2:53 PM)29.78 "Hg (Feb 26, 2:53 AM)
Average67 °F77%30.12 "Hg
* Reported Feb 16 5:53 PM — Mar 3 5:53 PM, Naples, Weather by CustomWeather, © 2015

Note: Actual official high and low records may vary slightly from our data, if they occured in-between our weather recording intervals... More about our weather records

Advertising

Naples weather history for previous 24 hours

 ConditionsComfort  
Time TempWeatherWind HumidityBarometerVisibility
5:53 PM
Tue, Mar 3
78 °FSunny.10 mph66%30.09 "Hg10 mi
4:53 PM80 °FScattered clouds.9 mph62%30.08 "Hg10 mi
3:53 PM84 °FScattered clouds.14 mph45%30.07 "Hg10 mi
2:53 PM87 °FScattered clouds.13 mph43%30.09 "Hg10 mi
1:53 PM85 °FScattered clouds.13 mph46%30.11 "Hg10 mi
12:53 PM83 °FScattered clouds.12 mph53%30.15 "Hg10 mi
11:53 AM81 °FPartly sunny.13 mph54%30.17 "Hg10 mi
10:53 AM79 °FPartly sunny.14 mph65%30.19 "Hg10 mi
9:53 AM77 °FPartly sunny.8 mph77%30.20 "Hg10 mi
8:53 AM71 °FSunny.9 mph90%30.20 "Hg9 mi
8:01 AM67 °FFog.7 mph100%30.20 "Hg6 mi
6:53 AM64 °FFog.6 mph100%30.17 "Hg6 mi
5:53 AM64 °FClear.6 mph100%30.15 "Hg7 mi
4:53 AM64 °FClear.5 mph100%30.14 "Hg8 mi
3:53 AM66 °FClear.3 mph93%30.14 "Hg9 mi
2:53 AM66 °FClear.No wind96%30.14 "Hg9 mi
1:53 AM67 °FClear.3 mph93%30.16 "Hg10 mi
12:53 AM68 °FClear.5 mph90%30.18 "Hg10 mi
11:53 PM
Mon, Mar 2
69 °FClear.5 mph90%30.20 "Hg10 mi
10:53 PM69 °FClear.3 mph93%30.21 "Hg10 mi
9:53 PM71 °FClear.6 mph87%30.21 "Hg10 mi
8:53 PM71 °FClear.No wind87%30.20 "Hg10 mi
7:53 PM72 °FPassing clouds.5 mph87%30.19 "Hg10 mi
Weather by CustomWeather, © 2015

See weather overviewHow to use our weather pages